Overview Statistics Trail Chart Weather Telemetry Raw packets
 

This is the latest recevied weather packets stored in our database for station/object KF0WJA. If no packets are shown the sender has not sent any weather packets the latest 10 day(s).

<< 54 55 56 57 58 59 60 >>
Time Temp. Humidity Pressure Rain* Wind** Luminosity Snow
1788295474 37.22° C 31% 1016.9 hPa 0 mm - 689 W/m² -
1788295173 36.67° C 32% 1017 hPa 0 mm - 206 W/m² -
1788294869 37.22° C 30% 1017 hPa 0 mm - 731 W/m² -
1788294564 37.78° C 29% 1017.3 hPa 0 mm - 705 W/m² -
1788294258 38.33° C 29% 1017.3 hPa 0 mm - 708 W/m² -
1788293954 37.22° C 31% 1017.2 hPa 0 mm - 718 W/m² -
1788293654 36.11° C 30% 1017.4 hPa 0 mm - 732 W/m² -
1788293348 37.22° C 31% 1017.4 hPa 0 mm - 226 W/m² -
1788293043 38.33° C 29% 1017.2 hPa 0 mm - 448 W/m² -
1788292743 36.67° C 31% 1017.5 hPa 0 mm - 772 W/m² -
1788292441 35.56° C 33% 1017.6 hPa 0 mm - 229 W/m² -
1788292136 36.67° C 32% 1017.7 hPa 0 mm - 222 W/m² -
1788291830 35.56° C 33% 1017.8 hPa 0 mm - 778 W/m² -
1788291540 35.56° C 33% 1017.7 hPa 0 mm - 296 W/m² -
1788291226 36.11° C 33% 1017.9 hPa 0 mm - 215 W/m² -
1788290926 35.56° C 33% 1018 hPa 0 mm - 796 W/m² -
1788290622 36.11° C 32% 1017.9 hPa 0 mm - 227 W/m² -
1788290318 37.22° C 30% 1017.8 hPa 0 mm - 782 W/m² -
1788290013 36.11° C 32% 1017.8 hPa 0 mm - 285 W/m² -
1788289709 37.22° C 30% 1018 hPa 0 mm - 264 W/m² -
1788289409 37.78° C 30% 1018 hPa 0 mm - 719 W/m² -
1788289107 36.67° C 32% 1017.9 hPa 0 mm - 769 W/m² -
1788288807 36.67° C 31% 1018.2 hPa 0 mm - 188 W/m² -
1788288504 36.67° C 31% 1018 hPa 0 mm - 737 W/m² -
1788288197 36.67° C 31% 1018.1 hPa 0 mm - 746 W/m² -

* Rain latest hour (hover to see other rain measurements)
** Current wind speed in m/s (hover to see current wind gust speed)